This demonstration page uses our WeatherBlox Daily Observations layout. Learn more.

Left ArrowRight Arrow

38.20091, -84.87328

Hourly Observations for August 10, 2021

Temp ( °F °C ) Dew Point ( °F °C ) Humidity (%) Winds ( mph kmh ) Pressure ( in mb ) Visibility ( mi km ) Precip ( " mm )
12:53 am 00:53 Clear 72 22.2 70 21.1 94 94 S 5 7 30.05 1018 10 16 0.00 0.00
1:53 am 01:53 Mostly Cloudy 72 22.2 70 21.1 94 94 S 5 7 30.05 1018 10 16 0.00 0.00
2:53 am 02:53 Clear 73 22.8 70 21.1 90 90 SSW 8 13 30.04 1017 10 16 0.00 0.00
3:53 am 03:53 Clear 72 22.2 70 21.1 94 94 SSW 6 9 30.05 1018 10 16 0.00 0.00
4:53 am 04:53 Clear 73 22.8 70 21.1 90 90 S 5 7 30.06 1018 10 16 0.00 0.00
5:53 am 05:53 Clear 74 23.3 71 21.7 91 91 SSW 7 11 30.06 1018 10 16 0.00 0.00
6:53 am 06:53 Sunny 74 23.3 72 22.2 94 94 S 7 11 30.06 1018 10 16 0.00 0.00
7:53 am 07:53 Sunny 76 24.4 73 22.8 91 91 SSW 5 7 30.09 1019 10 16 0.00 0.00
8:53 am 08:53 Mostly Sunny 79 26.1 74 23.3 85 85 SSW 12 19 30.08 1019 10 16 0.00 0.00
9:53 am 09:53 Partly Cloudy 82 27.8 75 23.9 79 79 SW 10 17 30.09 1019 10 16 0.00 0.00
10:53 am 10:53 Mostly Cloudy with Thunderstorms 83 28.3 76 24.4 79 79 SSW 10 17 30.10 1019 9 14 0.00 0.00
11:02 am 11:02 Mostly Cloudy with Nearby Thunderstorms 81 27.2 75 23.9 82 82 SW 7 11 30.09 1019 10 16 0.00 0.00
11:19 am 11:19 Cloudy with Thunderstorms 82 27.8 75 23.9 79 79 NW 3 6 30.10 1019 10 16 0.00 0.00
11:29 am 11:29 Cloudy with Thunderstorms 81 27.2 76 24.4 85 85 Calm 30.09 1019 2 3 0.03 0.76
11:42 am 11:42 Cloudy with Thunderstorms 80 26.7 76 24.4 87 87 VRB 3 6 30.10 1019 10 16 0.03 0.76
11:53 am 11:53 Cloudy with Thunderstorms 80 26.7 76 24.4 87 87 NNE 5 7 30.11 1020 6 10 0.04 1.02
12:10 pm 12:10 Cloudy with Strong Thunderstorms 78 25.6 76 24.4 93 93 NW 5 7 30.13 1020 2 3 0.05 1.27
12:13 pm 12:13 Cloudy with Strong Thunderstorms 78 25.6 76 24.4 93 93 Calm 30.13 1020 1 2 0.09 2.29
12:20 pm 12:20 Cloudy with Thunderstorms 78 25.6 76 24.4 93 93 NNW 8 13 30.11 1019 1 1 0.13 3.30
12:22 pm 12:22 Cloudy with Thunderstorms 78 25.6 76 24.4 93 93 N 7 11 30.10 1019 1 2 0.14 3.56
12:28 pm 12:28 Cloudy with Thunderstorms 76 24.4 75 23.9 97 97 VRB 6 9 30.11 1020 3 4 0.16 4.06
12:37 pm 12:37 Cloudy with Thunderstorms 76 24.4 73 22.8 91 91 ENE 8 13 30.11 1020 4 6 0.17 4.32
12:53 pm 12:53 Mostly Cloudy with Thunderstorms 75 23.9 74 23.3 96 96 SSE 6 9 30.09 1019 10 16 0.17 4.32
1:08 pm 13:08 Partly Cloudy 75 23.9 73 22.8 94 94 SE 8 13 30.08 1019 10 16 0.00 0.00
1:53 pm 13:53 Sunny 75 23.9 73 22.8 94 94 S 5 7 30.06 1018 10 16 0.00 0.00
2:53 pm 14:53 Sunny 78 25.6 74 23.3 87 87 SSE 8 13 30.05 1018 10 16 0.00 0.00
3:53 pm 15:53 Partly Cloudy 85 29.4 76 24.4 75 75 S 9 15 30.03 1017 10 16 0.00 0.00
4:53 pm 16:53 Mostly Cloudy 88 31.1 75 23.9 66 66 S 10 17 30.02 1017 10 16 0.00 0.00
5:53 pm 17:53 Partly Cloudy 88 31.1 77 25 70 70 SSW 15 24 30.01 1016 10 16 0.00 0.00
6:53 pm 18:53 Mostly Sunny 88 31.1 76 24.4 68 68 SSW 9 15 30.00 1016 10 16 0.00 0.00
7:53 pm 19:53 Sunny 85 29.4 76 24.4 75 75 S 6 9 30.00 1016 10 16 0.00 0.00
8:53 pm 20:53 Clear 82 27.8 76 24.4 82 82 SSW 6 9 30.00 1016 10 16 0.00 0.00
9:53 pm 21:53 Mostly Clear 82 27.8 76 24.4 82 82 S 7 11 30.01 1016 10 16 0.00 0.00
10:53 pm 22:53 Clear 80 26.7 76 24.4 87 87 SSE 8 13 30.01 1016 10 16 0.00 0.00
11:53 pm 23:53 Mostly Cloudy 80 26.7 76 24.4 87 87 SW 6 9 30.04 1017 10 16 0.00 0.00

Powered by AerisWeather